Hourly Weather Kleczewo

Today, 29 July, Thursday

Time Temperature Precipitation Wind Pressure Humidity
00:00 +20°C° 0.3 mm 1 mps 748 mmHg 93%
01:00 +19°C° 0 mm 2 mps 748 mmHg 93%
02:00 +18°C° 0.1 mm 2 mps 748 mmHg 94%
03:00 +18°C° 0.1 mm 2 mps 748 mmHg 94%
04:00 +17°C° 0.1 mm 3 mps 748 mmHg 95%
05:00 +18°C° 0 mm 3 mps 748 mmHg 89%
06:00 +19°C° 0 mm 3 mps 748 mmHg 83%
07:00 +20°C° 0 mm 4 mps 748 mmHg 77%
08:00 +22°C° 0 mm 4 mps 748 mmHg 68%
09:00 +25°C° 0 mm 5 mps 748 mmHg 59%
10:00 +26°C° 0 mm 5 mps 748 mmHg 51%
11:00 +26°C° 0 mm 5 mps 748 mmHg 49%
12:00 +26°C° 0 mm 5 mps 748 mmHg 48%
13:00 +26°C° 0 mm 5 mps 748 mmHg 46%
14:00 +26°C° 0 mm 5 mps 748 mmHg 45%
15:00 +26°C° 0 mm 5 mps 748 mmHg 44%
16:00 +26°C° 0 mm 4 mps 748 mmHg 43%
17:00 +25°C° 0 mm 4 mps 748 mmHg 47%
18:00 +23°C° 0 mm 4 mps 748 mmHg 51%
19:00 +22°C° 0 mm 4 mps 748 mmHg 55%
20:00 +20°C° 0 mm 4 mps 748 mmHg 61%
21:00 +18°C° 0 mm 3 mps 748 mmHg 66%
22:00 +17°C° 0 mm 3 mps 748 mmHg 72%
23:00 +16°C° 0 mm 3 mps 748 mmHg 74%

Tomorrow, 30 July, Friday

Time Temperature Precipitation Wind Pressure Humidity
00:00 +16°C° 0 mm 3 mps 748 mmHg 77%
01:00 +14°C° 0 mm 3 mps 748 mmHg 80%
02:00 +14°C° 0 mm 3 mps 748 mmHg 80%
03:00 +13°C° 0 mm 3 mps 748 mmHg 80%
04:00 +13°C° 0 mm 3 mps 748 mmHg 79%
05:00 +15°C° 0 mm 4 mps 748 mmHg 72%
06:00 +16°C° 0 mm 5 mps 748 mmHg 64%
07:00 +19°C° 0 mm 6 mps 748 mmHg 57%
08:00 +20°C° 0 mm 7 mps 748 mmHg 51%
09:00 +21°C° 0 mm 7 mps 748 mmHg 46%
10:00 +22°C° 0 mm 8 mps 747 mmHg 40%
11:00 +23°C° 0 mm 8 mps 747 mmHg 38%
12:00 +24°C° 0 mm 8 mps 747 mmHg 36%
13:00 +26°C° 0 mm 8 mps 747 mmHg 33%
14:00 +26°C° 0 mm 7 mps 746 mmHg 33%
15:00 +26°C° 0 mm 7 mps 746 mmHg 33%
16:00 +26°C° 0 mm 7 mps 746 mmHg 33%
17:00 +24°C° 0 mm 6 mps 746 mmHg 37%
18:00 +23°C° 0 mm 5 mps 746 mmHg 42%
19:00 +21°C° 0 mm 4 mps 746 mmHg 47%
20:00 +20°C° 0 mm 4 mps 746 mmHg 51%
21:00 +19°C° 0 mm 3 mps 746 mmHg 55%
22:00 +17°C° 0 mm 3 mps 746 mmHg 59%
23:00 +17°C° 0 mm 3 mps 746 mmHg 63%

Day after tomorrow, 31 July, Saturday

Time Temperature Precipitation Wind Pressure Humidity
00:00 +16°C° 0 mm 3 mps 746 mmHg 67%
01:00 +15°C° 0 mm 2 mps 746 mmHg 70%
02:00 +15°C° 0 mm 2 mps 746 mmHg 71%
03:00 +15°C° 0 mm 2 mps 746 mmHg 72%
04:00 +15°C° 0 mm 2 mps 746 mmHg 73%
05:00 +16°C° 0 mm 3 mps 746 mmHg 68%
06:00 +18°C° 0 mm 3 mps 746 mmHg 63%
07:00 +20°C° 0 mm 3 mps 746 mmHg 58%
08:00 +21°C° 0 mm 4 mps 746 mmHg 54%
09:00 +23°C° 0 mm 4 mps 746 mmHg 50%
10:00 +26°C° 0 mm 5 mps 746 mmHg 46%
11:00 +26°C° 0 mm 5 mps 746 mmHg 47%
12:00 +26°C° 0 mm 6 mps 745 mmHg 48%
13:00 +26°C° 0 mm 6 mps 745 mmHg 49%
14:00 +26°C° 0.1 mm 6 mps 745 mmHg 51%
15:00 +26°C° 0.1 mm 5 mps 744 mmHg 52%
16:00 +26°C° 0.1 mm 5 mps 744 mmHg 53%
17:00 +25°C° 0 mm 5 mps 744 mmHg 51%
18:00 +25°C° 0 mm 5 mps 744 mmHg 50%
19:00 +23°C° 0 mm 5 mps 744 mmHg 48%
20:00 +21°C° 0 mm 4 mps 745 mmHg 53%
21:00 +19°C° 0 mm 4 mps 745 mmHg 58%
22:00 +18°C° 0 mm 4 mps 745 mmHg 63%
23:00 +17°C° 0 mm 4 mps 746 mmHg 65%

1 August, Sunday

Time Temperature Precipitation Wind Pressure Humidity
00:00 +15°C° 0 mm 4 mps 746 mmHg 68%
01:00 +15°C° 0 mm 4 mps 746 mmHg 70%
02:00 +14°C° 0 mm 4 mps 746 mmHg 74%
03:00 +14°C° 0 mm 4 mps 746 mmHg 78%
04:00 +13°C° 0 mm 4 mps 746 mmHg 82%
05:00 +15°C° 0 mm 4 mps 746 mmHg 79%
06:00 +16°C° 0 mm 5 mps 746 mmHg 75%
07:00 +17°C° 0 mm 5 mps 747 mmHg 72%
08:00 +20°C° 0 mm 5 mps 747 mmHg 65%
09:00 +21°C° 0 mm 5 mps 747 mmHg 57%
10:00 +22°C° 0 mm 5 mps 747 mmHg 50%
11:00 +23°C° 0 mm 5 mps 747 mmHg 47%
12:00 +25°C° 0 mm 4 mps 747 mmHg 45%
13:00 +25°C° 0 mm 4 mps 747 mmHg 42%
14:00 +25°C° 0 mm 4 mps 747 mmHg 44%
15:00 +23°C° 0 mm 4 mps 747 mmHg 46%
16:00 +23°C° 0 mm 4 mps 747 mmHg 47%
17:00 +22°C° 0 mm 3 mps 747 mmHg 55%
18:00 +20°C° 0 mm 3 mps 747 mmHg 63%
19:00 +19°C° 0 mm 2 mps 747 mmHg 71%
20:00 +18°C° 0 mm 2 mps 747 mmHg 76%
21:00 +16°C° 0 mm 2 mps 747 mmHg 80%
22:00 +15°C° 0 mm 2 mps 747 mmHg 85%
23:00 +15°C° 0 mm 2 mps 747 mmHg 85%

2 August, Monday

Time Temperature Precipitation Wind Pressure Humidity
00:00 +14°C° 0 mm 2 mps 747 mmHg 85%
01:00 +14°C° 0 mm 2 mps 747 mmHg 85%
02:00 +14°C° 0 mm 2 mps 747 mmHg 84%
03:00 +14°C° 0 mm 2 mps 747 mmHg 83%
04:00 +14°C° 0 mm 2 mps 747 mmHg 82%
05:00 +15°C° 0 mm 2 mps 747 mmHg 78%
06:00 +16°C° 0 mm 3 mps 748 mmHg 75%
07:00 +17°C° 0 mm 3 mps 748 mmHg 72%
08:00 +18°C° 0 mm 3 mps 748 mmHg 66%
09:00 +19°C° 0 mm 4 mps 748 mmHg 60%
10:00 +20°C° 0 mm 4 mps 748 mmHg 54%
11:00 +20°C° 0.1 mm 4 mps 748 mmHg 55%
12:00 +20°C° 0.1 mm 5 mps 748 mmHg 55%
13:00 +20°C° 0.1 mm 5 mps 748 mmHg 55%
14:00 +20°C° 0 mm 5 mps 749 mmHg 55%
15:00 +21°C° 0 mm 4 mps 749 mmHg 55%
16:00 +21°C° 0 mm 4 mps 749 mmHg 55%
17:00 +20°C° 0.2 mm 4 mps 749 mmHg 63%
18:00 +18°C° 0.2 mm 3 mps 749 mmHg 72%
19:00 +17°C° 0.2 mm 3 mps 749 mmHg 80%
20:00 +16°C° 0 mm 2 mps 749 mmHg 83%
21:00 +16°C° 0 mm 2 mps 749 mmHg 86%
22:00 +15°C° 0 mm 2 mps 750 mmHg 89%
23:00 +14°C° 0 mm 2 mps 750 mmHg 90%

3 August, Tuesday

Time Temperature Precipitation Wind Pressure Humidity
00:00 +14°C° 0 mm 2 mps 750 mmHg 91%
01:00 +13°C° 0 mm 2 mps 750 mmHg 92%
02:00 +13°C° 0 mm 2 mps 750 mmHg 92%
03:00 +13°C° 0 mm 2 mps 750 mmHg 93%
04:00 +13°C° 0 mm 2 mps 750 mmHg 93%
05:00 +14°C° 0 mm 3 mps 750 mmHg 86%
06:00 +15°C° 0 mm 4 mps 750 mmHg 79%
07:00 +17°C° 0 mm 4 mps 751 mmHg 71%
08:00 +19°C° 0 mm 4 mps 751 mmHg 63%
09:00 +20°C° 0 mm 5 mps 751 mmHg 55%
10:00 +22°C° 0 mm 5 mps 751 mmHg 47%
11:00 +23°C° 0 mm 5 mps 751 mmHg 43%
12:00 +23°C° 0 mm 5 mps 750 mmHg 39%
13:00 +25°C° 0 mm 5 mps 750 mmHg 35%
14:00 +25°C° 0 mm 4 mps 750 mmHg 36%
15:00 +25°C° 0 mm 4 mps 750 mmHg 37%
16:00 +25°C° 0 mm 4 mps 750 mmHg 38%
17:00 +22°C° 0 mm 3 mps 750 mmHg 46%
18:00 +20°C° 0 mm 3 mps 750 mmHg 54%
19:00 +19°C° 0 mm 2 mps 750 mmHg 63%
20:00 +18°C° 0 mm 2 mps 751 mmHg 68%
21:00 +17°C° 0 mm 2 mps 751 mmHg 74%
22:00 +16°C° 0 mm 2 mps 751 mmHg 79%
23:00 +16°C° 0 mm 1 mps 751 mmHg 78%
Show more